Year,Month,Day,Hour,Minute,Value (Times are PST for temperature in C)
2012,10,05,00,00,6.30
2012,10,05,00,01,6.30
2012,10,05,00,02,6.30
2012,10,05,00,03,6.20
2012,10,05,00,04,6.20
2012,10,05,00,05,6.20
2012,10,05,00,06,6.20
2012,10,05,00,07,6.20
2012,10,05,00,08,6.20
2012,10,05,00,09,6.20
2012,10,05,00,10,6.20
2012,10,05,00,11,6.10
2012,10,05,00,12,6.10
2012,10,05,00,13,6.10
2012,10,05,00,14,6.10
2012,10,05,00,15,6.10
2012,10,05,00,16,6.00
2012,10,05,00,17,6.00
2012,10,05,00,18,6.00
2012,10,05,00,19,6.00
2012,10,05,00,20,5.90
2012,10,05,00,21,5.90
2012,10,05,00,22,5.90
2012,10,05,00,23,5.90
2012,10,05,00,24,5.90
2012,10,05,00,25,5.80
2012,10,05,00,26,5.80
2012,10,05,00,27,5.80
2012,10,05,00,28,5.80
2012,10,05,00,29,5.80
2012,10,05,00,30,5.70
2012,10,05,00,31,5.70
2012,10,05,00,32,5.70
2012,10,05,00,33,5.70
2012,10,05,00,34,5.70
2012,10,05,00,35,5.70
2012,10,05,00,36,5.70
2012,10,05,00,37,5.70
2012,10,05,00,38,5.70
2012,10,05,00,39,5.60
2012,10,05,00,40,5.60
2012,10,05,00,41,5.60
2012,10,05,00,42,5.60
2012,10,05,00,43,5.60
2012,10,05,00,44,5.60
2012,10,05,00,45,5.50
2012,10,05,00,46,5.50
2012,10,05,00,47,5.50
2012,10,05,00,48,5.50
2012,10,05,00,49,5.50
2012,10,05,00,50,5.50
2012,10,05,00,51,5.50
2012,10,05,00,52,5.50
2012,10,05,00,53,5.50
2012,10,05,00,54,5.50
2012,10,05,00,55,5.50
2012,10,05,00,56,5.50
2012,10,05,00,57,5.50
2012,10,05,00,58,5.40
2012,10,05,00,59,5.40
2012,10,05,01,00,5.40
2012,10,05,01,01,5.40
2012,10,05,01,02,5.40
2012,10,05,01,03,5.40
2012,10,05,01,04,5.40
2012,10,05,01,05,5.40
2012,10,05,01,06,5.40
2012,10,05,01,07,5.40
2012,10,05,01,08,5.40
2012,10,05,01,09,5.40
2012,10,05,01,10,5.40
2012,10,05,01,11,5.40
2012,10,05,01,12,5.40
2012,10,05,01,13,5.40
2012,10,05,01,14,5.40
2012,10,05,01,15,5.40
2012,10,05,01,16,5.30
2012,10,05,01,17,5.30
2012,10,05,01,18,5.30
2012,10,05,01,19,5.30
2012,10,05,01,20,5.30
2012,10,05,01,21,5.30
2012,10,05,01,22,5.30
2012,10,05,01,23,5.30
2012,10,05,01,24,5.30
2012,10,05,01,25,5.20
2012,10,05,01,26,5.20
2012,10,05,01,27,5.20
2012,10,05,01,28,5.20
2012,10,05,01,29,5.20
2012,10,05,01,30,5.20
2012,10,05,01,31,5.20
2012,10,05,01,32,5.20
2012,10,05,01,33,5.10
2012,10,05,01,34,5.10
2012,10,05,01,35,5.10
2012,10,05,01,36,5.10
2012,10,05,01,37,5.10
2012,10,05,01,38,5.10
2012,10,05,01,39,5.10
2012,10,05,01,40,5.10
2012,10,05,01,41,5.10
2012,10,05,01,42,5.10
2012,10,05,01,43,5.10
2012,10,05,01,44,5.20
2012,10,05,01,45,5.20
2012,10,05,01,46,5.20
2012,10,05,01,47,5.30
2012,10,05,01,48,5.30
2012,10,05,01,49,5.30
2012,10,05,01,50,5.40
2012,10,05,01,51,5.40
2012,10,05,01,52,5.50
2012,10,05,01,53,5.50
2012,10,05,01,54,5.60
2012,10,05,01,55,5.70
2012,10,05,01,56,5.70
2012,10,05,01,57,5.80
2012,10,05,01,58,5.80
2012,10,05,01,59,5.80
2012,10,05,02,00,5.90
2012,10,05,02,01,6.00
2012,10,05,02,02,6.10
2012,10,05,02,03,6.20
2012,10,05,02,04,6.30
2012,10,05,02,05,6.40
2012,10,05,02,06,6.60
2012,10,05,02,07,6.60
2012,10,05,02,08,6.70
2012,10,05,02,09,6.80
2012,10,05,02,10,6.80
2012,10,05,02,11,6.90
2012,10,05,02,12,6.90
2012,10,05,02,13,7.00
2012,10,05,02,14,7.00
2012,10,05,02,15,7.00
2012,10,05,02,16,7.00
2012,10,05,02,17,7.00
2012,10,05,02,18,7.10
2012,10,05,02,19,7.20
2012,10,05,02,20,7.20
2012,10,05,02,21,7.30
2012,10,05,02,22,7.40
2012,10,05,02,23,7.40
2012,10,05,02,24,7.50
2012,10,05,02,25,7.60
2012,10,05,02,26,7.60
2012,10,05,02,27,7.70
2012,10,05,02,28,7.70
2012,10,05,02,29,7.80
2012,10,05,02,30,7.80
2012,10,05,02,31,7.90
2012,10,05,02,32,7.90
2012,10,05,02,33,8.00
2012,10,05,02,34,8.00
2012,10,05,02,35,8.10
2012,10,05,02,36,8.10
2012,10,05,02,37,8.10
2012,10,05,02,38,8.10
2012,10,05,02,39,8.00
2012,10,05,02,40,8.00
2012,10,05,02,41,8.00
2012,10,05,02,42,7.90
2012,10,05,02,43,7.80
2012,10,05,02,44,7.70
2012,10,05,02,45,7.70
2012,10,05,02,46,7.60
2012,10,05,02,47,7.50
2012,10,05,02,48,7.50
2012,10,05,02,49,7.40
2012,10,05,02,50,7.40
2012,10,05,02,51,7.30
2012,10,05,02,52,7.30
2012,10,05,02,53,7.20
2012,10,05,02,54,7.20
2012,10,05,02,55,7.20
2012,10,05,02,56,7.20
2012,10,05,02,57,7.20
2012,10,05,02,58,7.30
2012,10,05,02,59,7.30
2012,10,05,03,00,7.40
2012,10,05,03,01,7.40
2012,10,05,03,02,7.40
2012,10,05,03,03,7.40
2012,10,05,03,04,7.40
2012,10,05,03,05,7.40
2012,10,05,03,06,7.30
2012,10,05,03,07,7.30
2012,10,05,03,08,7.30
2012,10,05,03,09,7.30
2012,10,05,03,10,7.20
2012,10,05,03,11,7.20
2012,10,05,03,12,7.30
2012,10,05,03,13,7.30
2012,10,05,03,14,7.30
2012,10,05,03,15,7.30
2012,10,05,03,16,7.30
2012,10,05,03,17,7.50
2012,10,05,03,18,7.80
2012,10,05,03,19,7.90
2012,10,05,03,20,8.00
2012,10,05,03,21,8.00
2012,10,05,03,22,8.00
2012,10,05,03,23,8.00
2012,10,05,03,24,8.00
2012,10,05,03,25,7.90
2012,10,05,03,26,7.90
2012,10,05,03,27,7.80
2012,10,05,03,28,7.70
2012,10,05,03,29,7.70
2012,10,05,03,30,7.60
2012,10,05,03,31,7.60
2012,10,05,03,32,7.50
2012,10,05,03,33,7.40
2012,10,05,03,34,7.40
2012,10,05,03,35,7.30
2012,10,05,03,36,7.30
2012,10,05,03,37,7.20
2012,10,05,03,38,7.20
2012,10,05,03,39,7.20
2012,10,05,03,40,7.20
2012,10,05,03,41,7.20
2012,10,05,03,42,7.20
2012,10,05,03,43,7.20
2012,10,05,03,44,7.10
2012,10,05,03,45,7.10
2012,10,05,03,46,7.10
2012,10,05,03,47,7.10
2012,10,05,03,48,7.10
2012,10,05,03,49,7.10
2012,10,05,03,50,7.10
2012,10,05,03,51,7.10
2012,10,05,03,52,7.00
2012,10,05,03,53,7.00
2012,10,05,03,54,6.90
2012,10,05,03,55,6.80
2012,10,05,03,56,6.80
2012,10,05,03,57,6.70
2012,10,05,03,58,6.70
2012,10,05,03,59,6.70
2012,10,05,04,00,6.60
2012,10,05,04,01,6.60
2012,10,05,04,02,6.60
2012,10,05,04,03,6.60
2012,10,05,04,04,6.50
2012,10,05,04,05,6.50
2012,10,05,04,06,6.40
2012,10,05,04,07,6.40
2012,10,05,04,08,6.40
2012,10,05,04,09,6.30
2012,10,05,04,10,6.30
2012,10,05,04,11,6.30
2012,10,05,04,12,6.20
2012,10,05,04,13,6.20
2012,10,05,04,14,6.20
2012,10,05,04,15,6.20
2012,10,05,04,16,6.10
2012,10,05,04,17,6.10
2012,10,05,04,18,6.10
2012,10,05,04,19,6.10
2012,10,05,04,20,6.10
2012,10,05,04,21,6.10
2012,10,05,04,22,6.10
2012,10,05,04,23,6.10
2012,10,05,04,24,6.10
2012,10,05,04,25,6.10
2012,10,05,04,26,6.10
2012,10,05,04,27,6.10
2012,10,05,04,28,6.00
2012,10,05,04,29,6.00
2012,10,05,04,30,6.00
2012,10,05,04,31,5.90
2012,10,05,04,32,5.90
2012,10,05,04,33,5.90
2012,10,05,04,34,5.90
2012,10,05,04,35,5.90
2012,10,05,04,36,5.90
2012,10,05,04,37,5.80
2012,10,05,04,38,5.80
2012,10,05,04,39,5.80
2012,10,05,04,40,5.80
2012,10,05,04,41,5.80
2012,10,05,04,42,5.80
2012,10,05,04,43,5.80
2012,10,05,04,44,5.80
2012,10,05,04,45,5.80
2012,10,05,04,46,5.80
2012,10,05,04,47,5.80
2012,10,05,04,48,5.70
2012,10,05,04,49,5.70
2012,10,05,04,50,5.70
2012,10,05,04,51,5.70
2012,10,05,04,52,5.70
2012,10,05,04,53,5.70
2012,10,05,04,54,5.70
2012,10,05,04,55,5.70
2012,10,05,04,56,5.70
2012,10,05,04,57,5.70
2012,10,05,04,58,5.70
2012,10,05,04,59,5.70
2012,10,05,05,00,5.70
2012,10,05,05,01,5.80
2012,10,05,05,02,5.80
2012,10,05,05,03,5.80
2012,10,05,05,04,5.80
2012,10,05,05,05,5.80
2012,10,05,05,06,5.80
2012,10,05,05,07,5.80
2012,10,05,05,08,5.70
2012,10,05,05,09,5.80
2012,10,05,05,10,5.80
2012,10,05,05,11,5.80
2012,10,05,05,12,5.90
2012,10,05,05,13,6.10
2012,10,05,05,14,6.20
2012,10,05,05,15,6.40
2012,10,05,05,16,6.50
2012,10,05,05,17,6.60
2012,10,05,05,18,6.80
2012,10,05,05,19,7.00
2012,10,05,05,20,7.10
2012,10,05,05,21,7.20
2012,10,05,05,22,7.20
2012,10,05,05,23,7.30
2012,10,05,05,24,7.30
2012,10,05,05,25,7.30
2012,10,05,05,26,7.30
2012,10,05,05,27,7.20
2012,10,05,05,28,7.20
2012,10,05,05,29,7.10
2012,10,05,05,30,7.00
2012,10,05,05,31,6.90
2012,10,05,05,32,6.80
2012,10,05,05,33,6.70
2012,10,05,05,34,6.60
2012,10,05,05,35,6.50
2012,10,05,05,36,6.40
2012,10,05,05,37,6.30
2012,10,05,05,38,6.30
2012,10,05,05,39,6.20
2012,10,05,05,40,6.10
2012,10,05,05,41,6.00
2012,10,05,05,42,6.00
2012,10,05,05,43,5.90
2012,10,05,05,44,5.90
2012,10,05,05,45,5.90
2012,10,05,05,46,5.80
2012,10,05,05,47,5.80
2012,10,05,05,48,5.80
2012,10,05,05,49,5.80
2012,10,05,05,50,5.80
2012,10,05,05,51,5.90
2012,10,05,05,52,5.90
2012,10,05,05,53,6.00
2012,10,05,05,54,6.00
2012,10,05,05,55,6.00
2012,10,05,05,56,6.10
2012,10,05,05,57,6.20
2012,10,05,05,58,6.20
2012,10,05,05,59,6.30
2012,10,05,06,00,6.30
2012,10,05,06,01,6.40
2012,10,05,06,02,6.40
2012,10,05,06,03,6.40
2012,10,05,06,04,6.50
2012,10,05,06,05,6.50
2012,10,05,06,06,6.50
2012,10,05,06,07,6.50
2012,10,05,06,08,6.60
2012,10,05,06,09,6.60
2012,10,05,06,10,6.60
2012,10,05,06,11,6.50
2012,10,05,06,12,6.50
2012,10,05,06,13,6.50
2012,10,05,06,14,6.40
2012,10,05,06,15,6.40
2012,10,05,06,16,6.40
2012,10,05,06,17,6.40
2012,10,05,06,18,6.50
2012,10,05,06,19,6.50
2012,10,05,06,20,6.50
2012,10,05,06,21,6.60
2012,10,05,06,22,6.60
2012,10,05,06,23,6.70
2012,10,05,06,24,6.70
2012,10,05,06,25,6.70
2012,10,05,06,26,6.80
2012,10,05,06,27,6.80
2012,10,05,06,28,6.80
2012,10,05,06,29,6.90
2012,10,05,06,30,6.90
2012,10,05,06,31,7.00
2012,10,05,06,32,7.10
2012,10,05,06,33,7.10
2012,10,05,06,34,7.10
2012,10,05,06,35,7.00
2012,10,05,06,36,7.00
2012,10,05,06,37,7.00
2012,10,05,06,38,6.90
2012,10,05,06,39,6.90
2012,10,05,06,40,6.90
2012,10,05,06,41,6.90
2012,10,05,06,42,6.90
2012,10,05,06,43,6.90
2012,10,05,06,44,7.00
2012,10,05,06,45,7.00
2012,10,05,06,46,7.00
2012,10,05,06,47,7.00
2012,10,05,06,48,7.00
2012,10,05,06,49,7.10
2012,10,05,06,50,7.10
2012,10,05,06,51,7.10
2012,10,05,06,52,7.10
2012,10,05,06,53,7.20
2012,10,05,06,54,7.20
2012,10,05,06,55,7.20
2012,10,05,06,56,7.20
2012,10,05,06,57,7.20
2012,10,05,06,58,7.20
2012,10,05,06,59,7.20
2012,10,05,07,00,7.20
2012,10,05,07,01,7.20
2012,10,05,07,02,7.10
2012,10,05,07,03,7.10
2012,10,05,07,04,7.10
2012,10,05,07,05,7.10
2012,10,05,07,06,7.00
2012,10,05,07,07,7.00
2012,10,05,07,08,7.00
2012,10,05,07,09,6.90
2012,10,05,07,10,6.90
2012,10,05,07,11,6.90
2012,10,05,07,12,6.90
2012,10,05,07,13,7.00
2012,10,05,07,14,7.00
2012,10,05,07,15,6.90
2012,10,05,07,16,6.90
2012,10,05,07,17,6.90
2012,10,05,07,18,6.90
2012,10,05,07,19,6.90
2012,10,05,07,20,6.90
2012,10,05,07,21,6.90
2012,10,05,07,22,6.90
2012,10,05,07,23,6.90
2012,10,05,07,24,7.00
2012,10,05,07,25,7.00
2012,10,05,07,26,7.10
2012,10,05,07,27,7.10
2012,10,05,07,28,7.20
2012,10,05,07,29,7.20
2012,10,05,07,30,7.20
2012,10,05,07,31,7.20
2012,10,05,07,32,7.20
2012,10,05,07,33,7.20
2012,10,05,07,34,7.20
2012,10,05,07,35,7.20
2012,10,05,07,36,7.20
2012,10,05,07,37,7.10
2012,10,05,07,38,7.10
2012,10,05,07,39,7.10
2012,10,05,07,40,7.10
2012,10,05,07,41,7.10
2012,10,05,07,42,7.10
2012,10,05,07,43,7.00
2012,10,05,07,44,7.00
2012,10,05,07,45,7.00
2012,10,05,07,46,6.90
2012,10,05,07,47,6.90
2012,10,05,07,48,6.90
2012,10,05,07,49,6.80
2012,10,05,07,50,6.80
2012,10,05,07,51,6.70
2012,10,05,07,52,6.70
2012,10,05,07,53,6.70
2012,10,05,07,54,6.70
2012,10,05,07,55,6.60
2012,10,05,07,56,6.60
2012,10,05,07,57,6.60
2012,10,05,07,58,6.60
2012,10,05,07,59,6.60
2012,10,05,08,00,6.60
2012,10,05,08,01,6.60
2012,10,05,08,02,6.60
2012,10,05,08,03,6.70
2012,10,05,08,04,6.70
2012,10,05,08,05,6.70
2012,10,05,08,06,6.80
2012,10,05,08,07,6.80
2012,10,05,08,08,6.80
2012,10,05,08,09,6.90
2012,10,05,08,10,6.90
2012,10,05,08,11,6.90
2012,10,05,08,12,7.00
2012,10,05,08,13,7.00
2012,10,05,08,14,7.10
2012,10,05,08,15,7.10
2012,10,05,08,16,7.20
2012,10,05,08,17,7.20
2012,10,05,08,18,7.20
2012,10,05,08,19,7.30
2012,10,05,08,20,7.30
2012,10,05,08,21,7.40
2012,10,05,08,22,7.40
2012,10,05,08,23,7.50
2012,10,05,08,24,7.50
2012,10,05,08,25,7.60
2012,10,05,08,26,7.60
2012,10,05,08,27,7.70
2012,10,05,08,28,7.70
2012,10,05,08,29,7.80
2012,10,05,08,30,7.80
2012,10,05,08,31,7.80
2012,10,05,08,32,7.90
2012,10,05,08,33,7.90
2012,10,05,08,34,8.00
2012,10,05,08,35,8.00
2012,10,05,08,36,8.10
2012,10,05,08,37,8.20
2012,10,05,08,38,8.30
2012,10,05,08,39,8.40
2012,10,05,08,40,8.50
2012,10,05,08,41,8.60
2012,10,05,08,42,8.70
2012,10,05,08,43,8.80
2012,10,05,08,44,8.90
2012,10,05,08,45,9.00
2012,10,05,08,46,9.20
2012,10,05,08,47,9.40
2012,10,05,08,48,9.50
2012,10,05,08,49,9.60
2012,10,05,08,50,9.70
2012,10,05,08,51,9.70
2012,10,05,08,52,9.80
2012,10,05,08,53,9.90
2012,10,05,08,54,10.00
2012,10,05,08,55,10.10
2012,10,05,08,56,10.20
2012,10,05,08,57,10.30
2012,10,05,08,58,10.30
2012,10,05,08,59,10.40
2012,10,05,09,00,10.60
2012,10,05,09,01,10.70
2012,10,05,09,02,10.80
2012,10,05,09,03,11.00
2012,10,05,09,04,11.20
2012,10,05,09,05,11.40
2012,10,05,09,06,11.60
2012,10,05,09,07,11.70
2012,10,05,09,08,11.80
2012,10,05,09,09,12.00
2012,10,05,09,10,12.10
2012,10,05,09,11,12.20
2012,10,05,09,12,12.30
2012,10,05,09,13,12.40
2012,10,05,09,14,12.50
2012,10,05,09,15,12.50
2012,10,05,09,16,12.60
2012,10,05,09,17,12.60
2012,10,05,09,18,12.70
2012,10,05,09,19,12.70
2012,10,05,09,20,12.80
2012,10,05,09,21,12.80
2012,10,05,09,22,12.90
2012,10,05,09,23,13.00
2012,10,05,09,24,13.00
2012,10,05,09,25,13.10
2012,10,05,09,26,13.20
2012,10,05,09,27,13.20
2012,10,05,09,28,13.30
2012,10,05,09,29,13.30
2012,10,05,09,30,13.40
2012,10,05,09,31,13.40
2012,10,05,09,32,13.40
2012,10,05,09,33,13.50
2012,10,05,09,34,13.60
2012,10,05,09,35,13.60
2012,10,05,09,36,13.70
2012,10,05,09,37,13.70
2012,10,05,09,38,13.70
2012,10,05,09,39,13.70
2012,10,05,09,40,13.70
2012,10,05,09,41,13.70
2012,10,05,09,42,13.70
2012,10,05,09,43,13.70
2012,10,05,09,44,13.70
2012,10,05,09,45,13.70
2012,10,05,09,46,13.80
2012,10,05,09,47,13.80
2012,10,05,09,48,13.80
2012,10,05,09,49,13.80
2012,10,05,09,50,13.70
2012,10,05,09,51,13.70
2012,10,05,09,52,13.70
2012,10,05,09,53,13.70
2012,10,05,09,54,13.70
2012,10,05,09,55,13.70
2012,10,05,09,56,13.70
2012,10,05,09,57,13.70
2012,10,05,09,58,13.70
2012,10,05,09,59,13.70
2012,10,05,10,00,13.70
2012,10,05,10,01,13.70
2012,10,05,10,02,13.70
2012,10,05,10,03,13.70
2012,10,05,10,04,13.70
2012,10,05,10,05,13.70
2012,10,05,10,06,13.70
2012,10,05,10,07,13.70
2012,10,05,10,08,13.80
2012,10,05,10,09,13.80
2012,10,05,10,10,13.90
2012,10,05,10,11,13.90
2012,10,05,10,12,14.00
2012,10,05,10,13,14.10
2012,10,05,10,14,14.20
2012,10,05,10,15,14.20
2012,10,05,10,16,14.30
2012,10,05,10,17,14.30
2012,10,05,10,18,14.40
2012,10,05,10,19,14.50
2012,10,05,10,20,14.60
2012,10,05,10,21,14.60
2012,10,05,10,22,14.70
2012,10,05,10,23,14.70
2012,10,05,10,24,14.80
2012,10,05,10,25,14.90
2012,10,05,10,26,15.00
2012,10,05,10,27,15.00
2012,10,05,10,28,15.00
2012,10,05,10,29,15.00
2012,10,05,10,30,15.00
2012,10,05,10,31,15.00
2012,10,05,10,32,15.00
2012,10,05,10,33,15.10
2012,10,05,10,34,15.10
2012,10,05,10,35,15.20
2012,10,05,10,36,15.20
2012,10,05,10,37,15.20
2012,10,05,10,38,15.20
2012,10,05,10,39,15.20
2012,10,05,10,40,15.20
2012,10,05,10,41,15.20
2012,10,05,10,42,15.20
2012,10,05,10,43,15.10
2012,10,05,10,44,15.00
2012,10,05,10,45,15.00
2012,10,05,10,46,15.00
2012,10,05,10,47,15.00
2012,10,05,10,48,15.00
2012,10,05,10,49,15.00
2012,10,05,10,50,15.00
2012,10,05,10,51,15.10
2012,10,05,10,52,15.20
2012,10,05,10,53,15.20
2012,10,05,10,54,15.30
2012,10,05,10,55,15.30
2012,10,05,10,56,15.30
2012,10,05,10,57,15.30
2012,10,05,10,58,15.30
2012,10,05,10,59,15.30
2012,10,05,11,00,15.30
2012,10,05,11,01,15.40
2012,10,05,11,02,15.40
2012,10,05,11,03,15.40
2012,10,05,11,04,15.40
2012,10,05,11,05,15.40
2012,10,05,11,06,15.40
2012,10,05,11,07,15.40
2012,10,05,11,08,15.40
2012,10,05,11,09,15.40
2012,10,05,11,10,15.40
2012,10,05,11,11,15.40
2012,10,05,11,12,15.50
2012,10,05,11,13,15.50
2012,10,05,11,14,15.50
2012,10,05,11,15,15.50
2012,10,05,11,16,15.60
2012,10,05,11,17,15.70
2012,10,05,11,18,15.70
2012,10,05,11,19,15.80
2012,10,05,11,20,15.90
2012,10,05,11,21,15.90
2012,10,05,11,22,15.90
2012,10,05,11,23,16.00
2012,10,05,11,24,16.00
2012,10,05,11,25,16.10
2012,10,05,11,26,16.10
2012,10,05,11,27,16.20
2012,10,05,11,28,16.20
2012,10,05,11,29,16.30
2012,10,05,11,30,16.30
2012,10,05,11,31,16.30
2012,10,05,11,32,16.30
2012,10,05,11,33,16.30
2012,10,05,11,34,16.30
2012,10,05,11,35,16.30
2012,10,05,11,36,16.30
2012,10,05,11,37,16.30
2012,10,05,11,38,16.30
2012,10,05,11,39,16.30
2012,10,05,11,40,16.30
2012,10,05,11,41,16.30
2012,10,05,11,42,16.30
2012,10,05,11,43,16.30
2012,10,05,11,44,16.30
2012,10,05,11,45,16.30
2012,10,05,11,46,16.30
2012,10,05,11,47,16.40
2012,10,05,11,48,16.40
2012,10,05,11,49,16.50
2012,10,05,11,50,16.50
2012,10,05,11,51,16.50
2012,10,05,11,52,16.50
2012,10,05,11,53,16.60
2012,10,05,11,54,16.60
2012,10,05,11,55,16.60
2012,10,05,11,56,16.60
2012,10,05,11,57,16.60
2012,10,05,11,58,16.60
2012,10,05,11,59,16.60
2012,10,05,12,00,16.60
2012,10,05,12,01,16.70
2012,10,05,12,02,16.70
2012,10,05,12,03,16.70
2012,10,05,12,04,16.70
2012,10,05,12,05,16.70
2012,10,05,12,06,16.70
2012,10,05,12,07,16.70
2012,10,05,12,08,16.70
2012,10,05,12,09,16.70
2012,10,05,12,10,16.70
2012,10,05,12,11,16.80
2012,10,05,12,12,16.80
2012,10,05,12,13,16.80
2012,10,05,12,14,16.80
2012,10,05,12,15,16.80
2012,10,05,12,16,16.80
2012,10,05,12,17,16.80
2012,10,05,12,18,16.80
2012,10,05,12,19,16.80
2012,10,05,12,20,16.90
2012,10,05,12,21,16.90
2012,10,05,12,22,17.00
2012,10,05,12,23,17.00
2012,10,05,12,24,17.10
2012,10,05,12,25,17.10
2012,10,05,12,26,17.10
2012,10,05,12,27,17.20
2012,10,05,12,28,17.20
2012,10,05,12,29,17.30
2012,10,05,12,30,17.30
2012,10,05,12,31,17.30
2012,10,05,12,32,17.30
2012,10,05,12,33,17.40
2012,10,05,12,34,17.40
2012,10,05,12,35,17.40
2012,10,05,12,36,17.40
2012,10,05,12,37,17.40
2012,10,05,12,38,17.40
2012,10,05,12,39,17.50
2012,10,05,12,40,17.50
2012,10,05,12,41,17.50
2012,10,05,12,42,17.50
2012,10,05,12,43,17.60
2012,10,05,12,44,17.60
2012,10,05,12,45,17.60
2012,10,05,12,46,17.60
2012,10,05,12,47,17.60
2012,10,05,12,48,17.70
2012,10,05,12,49,17.70
2012,10,05,12,50,17.80
2012,10,05,12,51,17.80
2012,10,05,12,52,17.80
2012,10,05,12,53,17.80
2012,10,05,12,54,17.80
2012,10,05,12,55,17.90
2012,10,05,12,56,17.90
2012,10,05,12,57,17.90
2012,10,05,12,58,18.00
2012,10,05,12,59,18.00
2012,10,05,13,00,18.00
2012,10,05,13,01,18.10
2012,10,05,13,02,18.10
2012,10,05,13,03,18.10
2012,10,05,13,04,18.10
2012,10,05,13,05,18.20
2012,10,05,13,06,18.20
2012,10,05,13,07,18.10
2012,10,05,13,08,18.00
2012,10,05,13,09,17.90
2012,10,05,13,10,18.00
2012,10,05,13,11,18.00
2012,10,05,13,12,18.00
2012,10,05,13,13,18.10
2012,10,05,13,14,18.20
2012,10,05,13,15,18.20
2012,10,05,13,16,18.20
2012,10,05,13,17,18.30
2012,10,05,13,18,18.30
2012,10,05,13,19,18.30
2012,10,05,13,20,18.30
2012,10,05,13,21,18.40
2012,10,05,13,22,18.40
2012,10,05,13,23,18.40
2012,10,05,13,24,18.40
2012,10,05,13,25,18.40
2012,10,05,13,26,18.40
2012,10,05,13,27,18.50
2012,10,05,13,28,18.50
2012,10,05,13,29,18.50
2012,10,05,13,30,18.60
2012,10,05,13,31,18.60
2012,10,05,13,32,18.70
2012,10,05,13,33,18.70
2012,10,05,13,34,18.80
2012,10,05,13,35,18.80
2012,10,05,13,36,18.80
2012,10,05,13,37,18.80
2012,10,05,13,38,18.90
2012,10,05,13,39,18.90
2012,10,05,13,40,18.90
2012,10,05,13,41,18.90
2012,10,05,13,42,18.90
2012,10,05,13,43,19.00
2012,10,05,13,44,19.00
2012,10,05,13,45,19.10
2012,10,05,13,46,19.20
2012,10,05,13,47,19.20
2012,10,05,13,48,19.20
2012,10,05,13,49,19.20
2012,10,05,13,50,19.20
2012,10,05,13,51,19.20
2012,10,05,13,52,19.20
2012,10,05,13,53,19.20
2012,10,05,13,54,19.10
2012,10,05,13,55,19.20
2012,10,05,13,56,19.10
2012,10,05,13,57,19.10
2012,10,05,13,58,19.10
2012,10,05,13,59,19.10
2012,10,05,14,00,19.10
2012,10,05,14,01,19.20
2012,10,05,14,02,19.20
2012,10,05,14,03,19.20
2012,10,05,14,04,19.20
2012,10,05,14,05,19.10
2012,10,05,14,06,19.10
2012,10,05,14,07,19.10
2012,10,05,14,08,19.10
2012,10,05,14,09,19.10
2012,10,05,14,10,19.10
2012,10,05,14,11,19.20
2012,10,05,14,12,19.20
2012,10,05,14,13,19.20
2012,10,05,14,14,19.20
2012,10,05,14,15,19.20
2012,10,05,14,16,19.20
2012,10,05,14,17,19.20
2012,10,05,14,18,19.20
2012,10,05,14,19,19.20
2012,10,05,14,20,19.20
2012,10,05,14,21,19.30
2012,10,05,14,22,19.20
2012,10,05,14,23,19.20
2012,10,05,14,24,19.30
2012,10,05,14,25,19.30
2012,10,05,14,26,19.20
2012,10,05,14,27,19.20
2012,10,05,14,28,19.20
2012,10,05,14,29,19.20
2012,10,05,14,30,19.30
2012,10,05,14,31,19.30
2012,10,05,14,32,19.30
2012,10,05,14,33,19.40
2012,10,05,14,34,19.40
2012,10,05,14,35,19.40
2012,10,05,14,36,19.50
2012,10,05,14,37,19.50
2012,10,05,14,38,19.50
2012,10,05,14,39,19.40
2012,10,05,14,40,19.40
2012,10,05,14,41,19.30
2012,10,05,14,42,19.30
2012,10,05,14,43,19.30
2012,10,05,14,44,19.30
2012,10,05,14,45,19.30
2012,10,05,14,46,19.40
2012,10,05,14,47,19.40
2012,10,05,14,48,19.40
2012,10,05,14,49,19.40
2012,10,05,14,50,19.40
2012,10,05,14,51,19.40
2012,10,05,14,52,19.40
2012,10,05,14,53,19.40
2012,10,05,14,54,19.40
2012,10,05,14,55,19.50
2012,10,05,14,56,19.50
2012,10,05,14,57,19.50
2012,10,05,14,58,19.60
2012,10,05,14,59,19.60
2012,10,05,15,00,19.60
2012,10,05,15,01,19.60
2012,10,05,15,02,19.60
2012,10,05,15,03,19.60
2012,10,05,15,04,19.60
2012,10,05,15,05,19.60
2012,10,05,15,06,19.60
2012,10,05,15,07,19.50
2012,10,05,15,08,19.50
2012,10,05,15,09,19.50
2012,10,05,15,10,19.60
2012,10,05,15,11,19.60
2012,10,05,15,12,19.60
2012,10,05,15,13,19.60
2012,10,05,15,14,19.70
2012,10,05,15,15,19.70
2012,10,05,15,16,19.70
2012,10,05,15,17,19.70
2012,10,05,15,18,19.60
2012,10,05,15,19,19.60
2012,10,05,15,20,19.70
2012,10,05,15,21,19.70
2012,10,05,15,22,19.60
2012,10,05,15,23,19.70
2012,10,05,15,24,19.70
2012,10,05,15,25,19.70
2012,10,05,15,26,19.70
2012,10,05,15,27,19.80
2012,10,05,15,28,19.80
2012,10,05,15,29,19.70
2012,10,05,15,30,19.70
2012,10,05,15,31,19.70
2012,10,05,15,32,19.70
2012,10,05,15,33,19.70
2012,10,05,15,34,19.80
2012,10,05,15,35,19.70
2012,10,05,15,36,19.40
2012,10,05,15,37,19.10
2012,10,05,15,38,18.80
2012,10,05,15,39,18.70
2012,10,05,15,40,18.60
2012,10,05,15,41,18.50
2012,10,05,15,42,18.40
2012,10,05,15,43,18.40
2012,10,05,15,44,18.30
2012,10,05,15,45,18.20
2012,10,05,15,46,18.10
2012,10,05,15,47,18.00
2012,10,05,15,48,17.90
2012,10,05,15,49,17.80
2012,10,05,15,50,17.80
2012,10,05,15,51,17.70
2012,10,05,15,52,17.70
2012,10,05,15,53,17.70
2012,10,05,15,54,17.70
2012,10,05,15,55,17.60
2012,10,05,15,56,17.60
2012,10,05,15,57,17.60
2012,10,05,15,58,17.60
2012,10,05,15,59,17.70
2012,10,05,16,00,17.70
2012,10,05,16,01,17.80
2012,10,05,16,02,17.80
2012,10,05,16,03,17.90
2012,10,05,16,04,17.90
2012,10,05,16,05,18.00
2012,10,05,16,06,18.10
2012,10,05,16,07,18.10
2012,10,05,16,08,18.10
2012,10,05,16,09,18.10
2012,10,05,16,10,18.20
2012,10,05,16,11,18.20
2012,10,05,16,12,18.30
2012,10,05,16,13,18.40
2012,10,05,16,14,18.40
2012,10,05,16,15,18.50
2012,10,05,16,16,18.40
2012,10,05,16,17,18.40
2012,10,05,16,18,18.40
2012,10,05,16,19,18.40
2012,10,05,16,20,18.30
2012,10,05,16,21,18.30
2012,10,05,16,22,18.30
2012,10,05,16,23,18.30
2012,10,05,16,24,18.20
2012,10,05,16,25,18.20
2012,10,05,16,26,18.20
2012,10,05,16,27,18.20
2012,10,05,16,28,18.20
2012,10,05,16,29,18.30
2012,10,05,16,30,18.30
2012,10,05,16,31,18.30
2012,10,05,16,32,18.40
2012,10,05,16,33,18.40
2012,10,05,16,34,18.40
2012,10,05,16,35,18.40
2012,10,05,16,36,18.40
2012,10,05,16,37,18.40
2012,10,05,16,38,18.40
2012,10,05,16,39,18.40
2012,10,05,16,40,18.30
2012,10,05,16,41,18.30
2012,10,05,16,42,18.30
2012,10,05,16,43,18.30
2012,10,05,16,44,18.30
2012,10,05,16,45,18.30
2012,10,05,16,46,18.30
2012,10,05,16,47,18.30
2012,10,05,16,48,18.30
2012,10,05,16,49,18.20
2012,10,05,16,50,18.20
2012,10,05,16,51,18.20
2012,10,05,16,52,18.10
2012,10,05,16,53,18.00
2012,10,05,16,54,17.80
2012,10,05,16,55,17.70
2012,10,05,16,56,17.70
2012,10,05,16,57,17.70
2012,10,05,16,58,17.60
2012,10,05,16,59,17.60
2012,10,05,17,00,17.50
2012,10,05,17,01,17.50
2012,10,05,17,02,17.40
2012,10,05,17,03,17.40
2012,10,05,17,04,17.30
2012,10,05,17,05,17.30
2012,10,05,17,06,17.30
2012,10,05,17,07,17.30
2012,10,05,17,08,17.30
2012,10,05,17,09,17.30
2012,10,05,17,10,17.30
2012,10,05,17,11,17.30
2012,10,05,17,12,17.40
2012,10,05,17,13,17.40
2012,10,05,17,14,17.40
2012,10,05,17,15,17.40
2012,10,05,17,16,17.40
2012,10,05,17,17,17.50
2012,10,05,17,18,17.50
2012,10,05,17,19,17.50
2012,10,05,17,20,17.50
2012,10,05,17,21,17.60
2012,10,05,17,22,17.60
2012,10,05,17,23,17.60
2012,10,05,17,24,17.60
2012,10,05,17,25,17.60
2012,10,05,17,26,17.60
2012,10,05,17,27,17.70
2012,10,05,17,28,17.70
2012,10,05,17,29,17.70
2012,10,05,17,30,17.70
2012,10,05,17,31,17.70
2012,10,05,17,32,17.70
2012,10,05,17,33,17.70
2012,10,05,17,34,17.70
2012,10,05,17,35,17.70
2012,10,05,17,36,17.70
2012,10,05,17,37,17.60
2012,10,05,17,38,17.60
2012,10,05,17,39,17.50
2012,10,05,17,40,17.40
2012,10,05,17,41,17.40
2012,10,05,17,42,17.30